FW8585 Weather Reports


time (UTC)temp
C
wind
direction
speed
KPH
gust
KPH
rain 1hr
cm
rain 24hr
cm
rain mn
cm
humidity
%
barometer
mb
20260505040331 22 235 11.3 19.3 0.00 0.00 0.00 74 1008.7
20260505035416 22 219 11.3 22.5 0.00 0.00 0.00 74 1008.8
20260505034415 22 224 11.3 19.3 0.00 0.00 0.00 74 1008.6
20260505033415 22 215 4.8 8.0 0.00 0.00 0.00 74 1009.0
20260505032417 22 228 9.7 17.7 0.00 0.00 0.00 73 1008.8
20260505030416 22 221 6.4 11.3 0.00 0.00 0.00 73 1008.9
20260505024518 23 223 11.3 20.9 0.00 0.00 0.00 72 1008.7
20260505024415 23 236 9.7 19.3 0.00 0.00 0.00 72 1008.7
20260505023417 23 217 9.7 12.9 0.00 0.00 0.00 72 1008.8
20260505023316 23 210 8.0 11.3 0.00 0.00 0.00 72 1008.7
20260505022316 23 214 8.0 14.5 0.00 0.00 0.00 72 1008.8
20260505022216 23 215 4.8 9.7 0.00 0.00 0.00 71 1008.8
20260505021216 23 195 4.8 9.7 0.00 0.00 0.00 71 1008.6
20260505020216 23 220 12.9 20.9 0.00 0.00 0.00 71 1008.5
20260505015215 23 211 14.5 20.9 0.00 0.00 0.00 71 1008.4
20260505014117 23 203 6.4 14.5 0.00 0.00 0.00 71 1008.2
20260505013017 23 229 8.0 12.9 0.00 0.00 0.00 71 1008.2
20260505012017 23 212 6.4 11.3 0.00 0.00 0.00 70 1008.1
20260505011017 23 199 8.0 11.3 0.00 0.00 0.00 69 1008.2
20260505010014 23 222 8.0 11.3 0.00 0.00 0.00 68 1008.1
20260505005015 24 204 9.7 12.9 0.00 0.00 0.00 67 1008.1
20260505004015 24 193 11.3 19.3 0.00 0.00 0.00 67 1007.9
20260505003015 24 195 11.3 16.1 0.00 0.00 0.00 67 1008.0
20260505002015 24 222 8.0 11.3 0.00 0.00 0.00 66 1008.0
20260505001016 24 202 11.3 19.3 0.00 0.00 0.00 66 1008.0
20260505000035 25 201 11.3 22.5 0.00 0.00 0.00 65 1008.2
20260504234114 25 196 14.5 20.9 0.00 0.00 0.00 63 1008.1
20260504233133 25 189 14.5 20.9 0.00 0.00 0.00 62 1008.1
20260504233017 25 207 16.1 24.1 0.00 0.00 0.00 62 1008.2
20260504232016 25 214 14.5 25.7 0.00 0.00 0.00 61 1008.2
20260504231114 26 183 8.0 20.9 0.00 0.00 0.00 61 1008.4
20260504230115 26 171 8.0 16.1 0.00 0.00 0.00 59 1008.4
20260504225116 26 200 14.5 20.9 0.00 0.00 0.00 56 1008.4
20260504225016 26 199 12.9 19.3 0.00 0.00 0.00 56 1008.2
20260504224014 26 194 12.9 22.5 0.00 0.00 0.00 55 1008.5
20260504223016 26 206 11.3 17.7 0.00 0.00 0.00 55 1008.6
20260504222917 26 223 8.0 12.9 0.00 0.00 0.00 55 1008.6
20260504222015 26 198 9.7 16.1 0.00 0.00 0.00 54 1008.8
20260504221916 26 186 9.7 16.1 0.00 0.00 0.00 53 1008.8
20260504221815 26 226 9.7 19.3 0.00 0.00 0.00 53 1008.8
20260504220914 27 226 11.3 17.7 0.00 0.00 0.00 53 1008.9
20260504215914 27 237 8.0 14.5 0.00 0.00 0.00 52 1008.7
20260504214915 27 232 8.0 14.5 0.00 0.00 0.00 51 1009.0
20260504213916 27 265 8.0 17.7 0.00 0.00 0.00 50 1009.0
20260504212915 27 232 9.7 16.1 0.00 0.00 0.00 50 1009.0
20260504211916 27 235 9.7 19.3 0.00 0.00 0.00 50 1009.2
20260504211014 27 252 11.3 16.1 0.00 0.00 0.00 49 1009.4
20260504210017 27 221 4.8 9.7 0.00 0.00 0.00 49 1009.5
20260504205114 27 226 8.0 14.5 0.00 0.00 0.00 50 1009.8
20260504205017 27 245 9.7 14.5 0.00 0.00 0.00 50 1009.8
20260504204114 27 195 11.3 17.7 0.00 0.00 0.00 49 1009.9
20260504203115 27 232 4.8 9.7 0.00 0.00 0.00 49 1009.9
20260504202214 27 234 6.4 9.7 0.00 0.00 0.00 49 1010.2
20260504200217 27 241 8.0 11.3 0.00 0.00 0.00 49 1010.4
20260504195314 27 240 4.8 12.9 0.00 0.00 0.00 50 1010.7
20260504195216 27 233 8.0 11.3 0.00 0.00 0.00 50 1010.7
20260504194216 26 222 4.8 8.0 0.00 0.00 0.00 49 1010.8
20260504193315 27 199 6.4 12.9 0.00 0.00 0.00 49 1011.0
20260504192316 26 219 6.4 9.7 0.00 0.00 0.00 50 1011.0
20260504191416 26 242 9.7 17.7 0.00 0.00 0.00 50 1011.3
20260504190515 26 216 8.0 14.5 0.00 0.00 0.00 50 1011.4
20260504185515 26 229 11.3 19.3 0.00 0.00 0.00 49 1011.6
20260504184614 26 240 9.7 14.5 0.00 0.00 0.00 50 1011.5
20260504183616 26 192 8.0 12.9 0.00 0.00 0.00 51 1011.6
20260504181617 26 200 11.3 19.3 0.00 0.00 0.00 51 1011.8
20260504181515 26 192 11.3 20.9 0.00 0.00 0.00 51 1011.9
20260504175615 25 264 12.9 17.7 0.00 0.00 0.00 50 1012.2
20260504175517 25 249 9.7 20.9 0.00 0.00 0.00 50 1012.1
20260504174614 25 244 14.5 25.7 0.00 0.00 0.00 50 1012.1
20260504173615 25 261 9.7 14.5 0.00 0.00 0.00 52 1012.4
20260504172632 25 250 11.3 19.3 0.00 0.00 0.00 52 1012.6
20260504171715 25 222 9.7 17.7 0.00 0.00 0.00 52 1012.7
20260504171615 25 188 8.0 12.9 0.00 0.00 0.00 52 1012.7
20260504140814 20 212 8.0 11.3 0.00 0.00 0.00 63 1014.0
20260504140714 20 188 8.0 11.3 0.00 0.00 0.00 63 1013.9
20260504130814 18 205 4.8 8.0 0.00 0.00 0.00 74 1014.1
20260504100615 14 247 0.0 0.0 0.00 0.00 0.00 85 1013.8
20260504100516 14 247 0.0 0.0 0.00 0.00 0.00 85 1013.8
20260504081814 15 247 0.0 0.0 0.00 0.00 0.00 79 1014.6
20260504081715 15 247 0.0 0.0 0.00 0.00 0.00 79 1014.7
20260504080715 15 247 0.0 0.0 0.00 0.00 0.00 78 1014.7
20260504045323 17 247 0.0 0.0 0.00 0.00 0.00 63 1016.4
20260504044336 18 247 1.6 1.6 0.00 0.00 0.00 62 1016.6
20260504043321 18 247 1.6 3.2 0.00 0.00 0.00 61 1016.5